Regional Weather Roundup
Issued by NWS

Home | Current Version | Previous Version | Graphics & Text | Print | Product List | Glossary On
Versions: 1 2 3 4 5 6 7 8 9 10 11 12 13 14 15 16 17 18 19 20 21 22 23 24 25 26 27 28 29 30 31 32 33 34 35 36 37 38 39 40 41 42 43 44 45 46 47 48 49 50
000
ASUS43 KBIS 280802
RWRND

NORTH DAKOTA REGIONAL WEATHER ROUNDUP
NATIONAL WEATHER SERVICE BISMARCK ND
200 AM CST TUE FEB 28 2017

NOTE: "FAIR" INDICATES FEW OR NO CLOUDS BELOW 12,000 FEET WITH NO
SIGNIFICANT WEATHER AND/OR OBSTRUCTIONS TO VISIBILITY.


NDZ001>003-009>011-017-280900-
NORTHWEST NORTH DAKOTA

CITY           SKY/WX    TMP DP  RH WIND       PRES   REMARKS
WILLISTON      CLOUDY     7   4  87 NE3       29.85S
MINOT          CLOUDY     4   0  83 W3        29.89R
MINOT AFB      CLOUDY     4   0  84 CALM      29.89R
$$

NDZ018>021-031>035-040>046-280900-
SOUTHWEST NORTH DAKOTA

CITY           SKY/WX    TMP DP  RH WIND       PRES   REMARKS
BISMARCK       CLOUDY    19  16  88 NE8       29.86S WCI   9
DICKINSON      CLOUDY    13  10  88 E5        29.75F WCI   5
GARRISON         N/A      4   1  88 N5        29.87R WCI  -5
HETTINGER ARPT CLOUDY    19  16  88 E9        29.75F WCI   8
$$

NDZ004>008-012>016-024-026-027-054-280900-
NORTHEAST NORTH DAKOTA

CITY           SKY/WX    TMP DP  RH WIND       PRES   REMARKS
GRAND FORKS    CLOUDY    16   8  71 N14       29.93S WCI   2
GRND FRKS AFB  CLOUDY    14   8  79 N13       29.93F WCI  -1
DEVILS LAKE    FLURRIES  10   6  84 NE7       29.91R WCI  -1
$$

NDZ022-023-025-028>030-036>039-047>053-280900-
SOUTHEAST NORTH DAKOTA

CITY           SKY/WX    TMP DP  RH WIND       PRES   REMARKS
FARGO          CLOUDY    22  19  89 N16       29.87R WCI   8
JAMESTOWN      FAIR      16  13  88 NE9       29.84F WCI   4
$$





USA.gov is the U.S. government's official web portal to all federal, state and local government web resources and services.